Weather History for Fort Drum, NY

Change the Weather History Date:

Wednesday, August 21, 2013

  Actual Average Record
Temperature  
Mean Temperature 72 °F -  
Max Temperature 81 °F 74 °F 86 °F (2003)
Min Temperature 62 °F 55 °F 49 °F (2007)
Cooling Degree Days 6    
Growing Degree Days 22 (Base 50)    
Moisture  
Dew Point 64 °F    
Average Humidity 75    
Maximum Humidity 99    
Minimum Humidity 57    
Precipitation  
Precipitation 0.00 in - - ()
Sea Level Pressure  
Sea Level Pressure 30.09 in    
Wind  
Wind Speed 8 mph (SSW)    
Max Wind Speed 13 mph    
Max Gust Speed 18 mph    
Visibility 9 miles    
Events      
Averages and records for this station are not official NWS values.
T = Trace of Precipitation, MM = Missing Value Source: NWS Daily Summary

Daily Weather History Graph

Daily Weather History Graph

Search for Another Location

Airport:

Trip Planner

Search our weather history database for the weather conditions in past years. The results will help you decide how hot, cold, wet, or windy it might be!

Date:

Astronomy

Aug. 21, 2013 Rise Set
Actual Time 6:13 AM EDT 7:57 PM EDT
Civil Twilight 5:43 AM EDT 8:27 PM EDT
Nautical Twilight 5:05 AM EDT 9:05 PM EDT
Astronomical Twilight 4:25 AM EDT 9:45 PM EDT
Moon 7:59 PM EDT (8/21) 6:54 AM EDT (8/21)
Length of Visible Light 14h 44m
Length of Day
13h 43m
Full, 100% of the Moon is Illuminated
Aug 21
Full
Aug 28
Last Quarter
Sep 5
New
Sep 12
First Quarter
Sep 19
Full

Hourly Weather History & Observations

Time (EDT) Temp. Heat Index Dew Point Humidity Pressure Visibility Wind Dir Wind Speed Gust Speed Precip Events Conditions
12:58 AM 63.3 °F - 60.3 °F 90% 30.12 in 10.0 mi South 4.6 mph - N/A   Clear
1:58 AM 63.9 °F - 60.6 °F 89% 30.12 in 10.0 mi South 6.9 mph - N/A   Clear
2:58 AM 63.7 °F - 60.6 °F 90% 30.12 in 10.0 mi SSE 6.9 mph - N/A   Clear
3:58 AM 62.2 °F - 60.4 °F 94% 30.12 in 10.0 mi South 6.9 mph - N/A   Clear
4:58 AM 62.6 °F - 61.0 °F 94% 30.12 in 10.0 mi SSE 6.9 mph - N/A   Clear
5:58 AM 63.3 °F - 61.9 °F 95% 30.13 in 10.0 mi South 6.9 mph - N/A   Partly Cloudy
6:58 AM 63.5 °F - 63.1 °F 99% 30.13 in 10.0 mi South 6.9 mph - N/A   Clear
7:58 AM 69.4 °F - 65.1 °F 86% 30.14 in 10.0 mi SSW 6.9 mph - N/A   Clear
8:58 AM 75.2 °F - 62.6 °F 65% 30.14 in 7.0 mi SW 9.2 mph - N/A   Partly Cloudy
9:55 AM 75.2 °F - 62.6 °F 65% 30.14 in 7.0 mi SSW 9.2 mph - N/A   Partly Cloudy
10:55 AM 78.8 °F - 62.6 °F 57% 30.13 in 7.0 mi SSW 11.5 mph - N/A   Partly Cloudy
11:55 AM 78.8 °F - 64.4 °F 61% 30.13 in 7.0 mi SSW 9.2 mph - N/A   Mostly Cloudy
12:58 PM 80.6 °F 82.9 °F 66.9 °F 63% 30.13 in 10.0 mi WSW 10.4 mph 18.4 mph N/A   Clear
1:58 PM 81.3 °F 83.3 °F 65.8 °F 59% 30.12 in 10.0 mi WSW 11.5 mph 18.4 mph N/A   Clear
2:58 PM 81.7 °F 83.5 °F 65.1 °F 57% 30.09 in 9.0 mi WSW 12.7 mph 18.4 mph N/A   Clear
3:58 PM 81.0 °F 83.2 °F 66.4 °F 61% 30.09 in 9.0 mi West 10.4 mph - N/A   Clear
4:58 PM 80.6 °F 82.8 °F 66.6 °F 62% 30.06 in 10.0 mi West 8.1 mph 17.3 mph N/A   Clear
5:58 PM 80.1 °F 82.3 °F 66.7 °F 64% 30.04 in 10.0 mi WSW 10.4 mph - N/A   Clear
6:58 PM 78.1 °F - 66.4 °F 67% 30.03 in 10.0 mi SW 8.1 mph - N/A   Clear
7:58 PM 73.9 °F - 66.0 °F 76% 30.01 in 10.0 mi South 8.1 mph - N/A   Clear
8:58 PM 72.5 °F - 65.5 °F 79% 30.01 in 10.0 mi South 10.4 mph - N/A   Clear
9:58 PM 70.9 °F - 65.3 °F 82% 30.01 in 10.0 mi SSW 9.2 mph - N/A   Clear
10:58 PM 73.6 °F - 64.2 °F 72% 30.02 in 10.0 mi SW 6.9 mph - N/A   Clear
11:58 PM 73.6 °F - 63.9 °F 72% 30.01 in 10.0 mi SW 8.1 mph - N/A   Clear